FW3095 Weather Reports


time (UTC)temp
C
wind
direction
speed
KPH
gust
KPH
rain 1hr
cm
rain 24hr
cm
rain mn
cm
humidity
%
barometer
mb
20260503190005 9 238 0.0 4.8 0.20 0.20 0.20 83 986.7
20260503184502 10 223 1.6 24.1 0.08 0.08 0.08 82 987.3
20260503183001 10 217 11.3 27.4 0.00 0.00 0.00 79 987.2
20260503181600 11 243 24.1 43.5 0.00 0.00 0.00 70 986.6
20260503181502 12 221 25.7 43.5 0.00 0.00 0.00 70 986.7
20260503180108 14 252 19.3 32.2 0.00 0.00 0.00 57 986.4
20260503174601 15 248 11.3 30.6 0.00 0.00 0.00 55 986.6
20260503173107 15 252 17.7 29.0 0.00 0.00 0.00 52 986.7
20260503171554 15 234 16.1 29.0 0.00 0.00 0.00 52 987.1
20260503081520 3 229 0.0 4.8 0.00 0.00 0.00 76 988.3
20260503071507 3 238 0.0 3.2 0.00 0.00 0.00 77 988.5
20260503060128 2 140 0.0 0.0 0.00 0.00 0.00 82 989.0
20260503054602 2 140 0.0 0.0 0.00 0.00 0.00 82 989.1
20260503053058 2 140 0.0 0.0 0.00 0.00 0.00 82 989.2
20260503051557 2 140 0.0 0.0 0.00 0.00 0.00 81 989.2
20260503050055 2 140 0.0 0.0 0.00 0.00 0.00 81 989.3
20260503044552 2 140 0.0 0.0 0.00 0.00 0.00 80 989.4
20260503043051 2 140 0.0 0.0 0.00 0.00 0.00 81 989.3
20260503041549 2 140 0.0 0.0 0.00 0.00 0.00 80 989.3
20260503040059 3 140 0.0 0.0 0.00 0.00 0.00 78 989.4
20260503034546 3 140 0.0 0.0 0.00 0.00 0.00 78 989.3
20260503033044 4 140 0.0 0.0 0.00 0.00 0.00 78 989.3
20260503031557 4 140 0.0 0.0 0.00 0.00 0.00 78 989.4
20260503030048 5 140 0.0 0.0 0.00 0.00 0.00 73 989.3
20260503024542 5 140 0.0 0.0 0.00 0.00 0.00 72 989.5
20260503023049 5 140 0.0 0.0 0.00 0.00 0.00 73 989.4
20260503021541 3 301 0.0 0.0 0.00 0.00 0.00 74 989.4
20260503020141 4 301 0.0 0.0 0.00 0.00 0.00 71 989.4
20260503014556 5 301 0.0 0.0 0.00 0.00 0.00 67 989.2
20260503013040 6 301 0.0 0.0 0.00 0.00 0.00 63 989.1
20260503011539 6 301 0.0 0.0 0.00 0.00 0.00 61 989.1
20260503010040 7 301 0.0 0.0 0.00 0.00 0.00 55 989.1
20260503004538 8 301 0.0 0.0 0.00 0.00 0.00 52 989.1
20260503003038 9 301 0.0 1.6 0.00 0.00 0.00 50 989.2
20260503001552 10 301 0.0 4.8 0.00 0.00 0.00 47 989.1
20260503000038 10 334 3.2 6.4 0.00 0.00 0.00 46 989.0
20260502234541 10 349 3.2 8.0 0.00 0.00 0.00 45 988.9
20260502233037 10 310 3.2 11.3 0.00 0.00 0.00 45 989.0
20260502231536 11 299 6.4 16.1 0.00 0.00 0.00 44 989.0
20260502230037 10 300 9.7 19.3 0.00 0.00 0.00 40 989.1
20260502224535 11 292 6.4 11.3 0.00 0.00 0.00 43 989.0
20260502223035 11 312 3.2 12.9 0.00 0.00 0.00 44 989.1
20260502221540 11 311 9.7 20.9 0.00 0.00 0.00 41 989.1
20260502220033 11 284 9.7 14.5 0.00 0.00 0.00 43 989.0
20260502214533 11 313 4.8 20.9 0.00 0.00 0.00 44 989.0
20260502213032 11 312 11.3 19.3 0.00 0.00 0.00 43 989.1
20260502211532 11 264 4.8 19.3 0.00 0.00 0.00 45 988.9
20260502210030 10 304 9.7 17.7 0.00 0.00 0.00 47 989.1
20260502204529 11 15 3.2 14.5 0.00 0.00 0.00 48 989.0
20260502203028 11 247 6.4 16.1 0.00 0.00 0.00 43 989.1
20260502201526 11 284 8.0 22.5 0.00 0.00 0.00 48 989.3
20260502200024 10 278 8.0 17.7 0.00 0.00 0.00 44 989.5
20260502194523 10 304 6.4 16.1 0.00 0.00 0.00 50 989.6
20260502193020 10 303 3.2 9.7 0.00 0.00 0.00 50 989.8
20260502191519 9 359 1.6 11.3 0.00 0.00 0.00 51 990.0